MDT,Max TemperatureF,Mean TemperatureF,Min TemperatureF,Max Dew PointF,MeanDew PointF,Min DewpointF,Max Humidity, Mean Humidity, Min Humidity, Max Sea Level PressureIn, Mean Sea Level PressureIn, Min Sea Level PressureIn, Max VisibilityMiles, Mean VisibilityMiles, Min VisibilityMiles, Max Wind SpeedMPH, Mean Wind SpeedMPH, Max Gust SpeedMPH,PrecipitationIn, CloudCover, Events, WindDirDegrees
2012-9-1,84,72,59,46,42,36,55,38,20,30.10,29.87,29.80,10,10,10,39,12,51,T,1,Thunderstorm,243
2012-9-2,83,68,52,41,32,23,55,33,11,30.04,29.94,29.88,10,10,10,23,9,31,0.00,0,,236
2012-9-3,85,69,53,34,25,19,38,24,10,30.08,29.94,29.86,10,10,10,20,7,30,0.00,0,,267
2012-9-4,85,70,55,34,23,16,32,20,8,30.00,29.89,29.81,10,10,8,27,11,38,0.00,0,,269
2012-9-5,86,66,45,34,23,11,49,28,6,30.06,29.94,29.80,10,9,8,23,9,32,0.00,0,,280
2012-9-6,80,66,52,43,28,17,66,41,15,30.23,29.92,29.80,10,10,10,21,7,35,T,2,Thunderstorm,281
2012-9-7,73,60,47,43,39,35,77,51,25,30.25,30.18,30.09,10,9,5,10,4,,T,2,Rain,304
2012-9-8,81,63,45,36,32,29,65,41,16,30.30,30.19,30.07,10,10,9,14,6,,0.00,0,,58
2012-9-9,87,68,49,32,26,22,38,24,9,30.08,29.94,29.79,10,10,9,16,5,,0.00,0,,296
2012-9-10,85,73,60,54,43,33,69,46,23,30.03,29.83,29.72,10,9,1,20,7,51,0.14,2,Rain-Thunderstorm,308
2012-9-11,82,66,50,45,35,19,66,39,11,30.03,29.81,29.71,10,10,9,22,7,30,0.00,1,,296
2012-9-12,69,56,42,32,26,20,62,41,19,30.32,30.16,30.03,10,9,8,14,7,,0.00,0,,308
2012-9-13,76,57,37,23,19,15,48,29,10,30.43,30.34,30.26,10,9,6,14,4,,0.00,0,,306
2012-9-14,82,63,44,24,21,16,37,25,12,30.34,30.20,30.07,10,10,9,13,4,,0.00,1,,286
2012-9-15,86,68,50,22,17,10,30,18,6,30.09,30.00,29.91,10,10,10,18,6,28,0.00,0,,276
2012-9-16,79,64,49,37,27,18,61,38,14,30.13,29.98,29.90,10,9,6,18,6,27,T,1,,347
2012-9-17,69,55,40,37,34,30,65,46,27,30.15,30.08,30.02,10,8,7,12,5,16,0.00,0,,273
2012-9-18,80,62,44,35,29,26,58,37,16,30.13,30.02,29.91,9,6,4,12,4,,0.00,0,,287
2012-9-19,78,64,49,35,26,23,42,28,14,30.11,30.02,29.96,10,8,6,13,5,20,0.00,0,,20
2012-9-20,77,60,43,31,27,25,38,27,15,30.10,30.03,29.97,10,8,6,15,5,20,0.00,0,,319
2012-9-21,79,62,45,34,28,26,38,27,15,30.14,30.07,30.02,10,8,5,12,4,,0.00,0,,283
2012-9-22,79,64,48,36,28,20,54,36,17,30.16,30.05,29.95,10,10,10,13,4,,0.00,0,,285
2012-9-23,78,65,52,48,30,19,67,43,18,30.09,29.98,29.89,10,10,7,15,5,41,0.09,2,Rain,279
2012-9-24,74,61,47,48,42,39,83,57,31,30.01,29.93,29.83,10,10,8,17,7,33,0.05,4,Rain-Thunderstorm,303
2012-9-25,72,60,47,48,45,41,86,82,77,30.04,29.92,29.86,10,10,10,28,5,35,0.07,3,Rain-Thunderstorm,219
2012-9-26,67,56,45,45,43,40,86,63,40,30.16,30.03,29.97,10,10,9,10,2,,0.00,4,Thunderstorm,145
2012-9-27,74,60,46,45,39,35,76,52,27,30.10,30.04,29.98,10,10,10,9,4,14,0.00,2,,240
2012-9-28,77,61,45,43,36,31,66,44,21,30.10,29.98,29.87,10,10,10,8,5,18,T,1,Rain-Thunderstorm,260
2012-9-29,74,60,46,38,34,31,54,40,25,30.11,30.01,29.94,10,10,10,15,6,23,0.00,3,,261
2012-9-30,78,62,45,35,33,31,54,37,19,30.17,30.08,29.98,10,10,10,10,4,21,0.00,1,,331